Showing default

LARETS, 27944

Orbit data source: Space-Track

LARETS, 27944 is a payload satellite owned by NII KP (CIS) in SSO that was launched on Sat, 27 Sep 2003 UTC via a KOSMOS 11K65M launch vehicle from the Plesetsk Missile And Space Complex (PKMTR). Payload-class satellites include a variety of spacecraft equipped with specific instruments for various scientific and technological missions. These include communications satellites like Starlink; space stations such as the ISS; scientific satellites like the Hubble; Earth observation satellites from companies like Planet Labs, Umbra, and HawkEye 360; GPS; miniature CubeSats for education and research; and military/defense satellites.

Loading next visibility...
Identifier
27944, 2003-042F
Orbit
SSO
Country
Flag of CISCIS
Related business
Manufacturer
NII KP
Mission
Operational Defense Calibration
Bus & Motor
Unknown
Mass
~10 kg wet, ~10 kg dry
Launch date (UTC)
2003-09-27 (22 years ago)
Launch vehicle
KOSMOS 11K65M
Launch site
Plesetsk Missile And Space Complex (PKMTR)
Object type
Payload
Rocket body
Debris
Shape & HBR
Sphere, 0.1 m
Radar Cross Section
0.031 m², Medium (>0.1 m² and < 1m²)

Expand to show TLE details & history
Last TLE update: 7 hours ago

TLE from 7 hours ago
0 LARETS
1 27944U 03042F   25308.57310044  .00000076  00000-0  24215-4 0  9998
2 27944  98.3878 101.4397 0012698  22.7531 337.4231 14.63804935180502
Epoch: 2025-11-04T13:45Z
TLE epoch observation values (Epoch: 2025-11-04T13:45:15.878Z)
Latitude
0.00002°
Longitude
-148.93465°
Altitude
675.623 km
Speed
7.523 km/s
True Right ascension
06h 45m 45s
True Declination
0° 00' 00"
Sunlit
Object was in full shadow at epoch
Visualization orbit readout
Latitude
Unknown
Longitude
Unknown
Altitude
Unknown
Speed
Unknown
Apparent Right ascension
Unknown
Apparent Declination
Unknown
Sunlit
N/A
Visualization observer readout
Local Sidereal Time
16:24:12
Azimuth
Unknown
Elevation
Unknown
Doppler factor
Unknown
Orbital elements
Apogee altitude
686.96 km
Perigee altitude
669.04 km
Semi-major axis
7,056.137 km
Eccentricity
0.00127
Inclination
98.3878°
RAAN
101.4397°
Arg. of periapsis
22.7531°
True anomaly
337.36715°
Mean anomaly
337.4231°
Eccentric anomaly
337.39514°
Mean motion
3.66178 °/min
Orbital period
98.31 mins
BSTAR
0.000024215
Loading maneuver chart data...
Computing Atmospheric mass density...
Loading historical data...
Loading historical data...
Loading historical data...
Loading historical data...
Loading historical data...
Loading historical data...
Loading historical data...

Documentation

Showing up to 5 results
|